Wind_Speed
27 26 47 45 38 37 34 35 31 21 26 25 34 35 28 22 28 29 28 25 30 34 37 41 41 51 55 53 60 60 61 56 49 50 58 65 60 55 57 56 57 54 58 51
23 25 28 30 37 34 37 33 30 27 30 26 26 26 27 26 24 26 28 25 27 30 36 40 37 51 58 44 59 64 64 63 67 57 59 58 55 61 56 53 58 54 43 40
33 36 36 33 32 33 35 27 26 29 25 30 32 26 26 24 24 22 24 24 25 30 32 41 39 46 55 47 56 63 67 63 58 60 58 63 64 63 53 55 47 38 41 46
33 34 29 31 17 28 27 22 26 26 29 30 28 30 31 21 25 23 22 24 22 28 29 36 39 50 50 50 57 63 65 57 64 62 61 49 48 48 47 47 41 40 42 47
39 32 26 20 20 22 21 18 23 21 25 25 28 27 23 23 24 22 19 18 22 30 32 31 31 38 34 55 59 59 62 70 66 55 47 43 43 48 52 48 44 44 45 47
46 36 29 14 17 20 15 15 22 18 24 23 24 14 16 18 19 19 21 17 14 37 30 36 31 34 45 44 50 64 62 58 49 47 49 50 49 52 55 58 46 45 43 43
52 44 32 20 22 17 21 21 19 16 19 23 20 21 18 16 14 13 14 13 12 17 34 29 35 32 34 37 52 58 68 61 51 53 54 53 52 51 55 48 47 40 42 43
52 49 36 24 26 25 20 26 16 16 18 21 21 19 16 15 15 10 9 12 13 12 21 22 31 30 30 31 34 53 53 48 55 54 49 50 44 37 35 36 35 34 33 37
48 48 37 32 28 29 28 25 19 17 15 18 24 20 15 17 16 14 12 15 9 11 27 34 30 33 37 25 33 47 54 55 53 48 46 45 38 30 32 31 31 32 34 34
47 45 40 39 32 20 32 28 23 20 17 16 22 23 16 13 16 15 16 22 14 8 15 21 31 36 33 31 40 42 40 41 39 30 28 27 27 24 25 26 27 28 31 35
34 46 45 41 27 20 30 27 24 21 18 16 19 22 16 16 17 20 16 17 17 9 12 21 26 29 31 31 34 32 29 26 27 27 26 23 24 25 24 23 26 30 33 36
30 47 48 39 29 14 11 19 27 25 19 16 18 20 18 14 16 18 20 15 17 14 11 18 24 30 20 20 22 24 25 25 24 24 25 25 23 22 25 28 30 32 36 38
32 45 46 41 31 18 21 21 24 27 22 14 14 16 17 16 16 17 18 16 18 19 19 23 27 30 26 29 24 23 24 25 25 24 24 23 24 27 28 29 32 35 36 39
36 39 44 42 30 24 20 21 21 22 22 19 17 17 17 18 18 16 14 17 19 21 19 21 23 25 30 22 19 20 22 22 22 23 24 25 26 27 28 31 34 35 37 39
44 44 48 50 29 20 20 19 19 21 22 21 16 17 17 16 18 19 17 16 19 21 25 27 25 27 25 25 23 21 21 22 24 25 25 26 27 28 31 31 33 34 36 38
47 45 45 43 26 23 22 20 20 20 21 18 16 16 16 15 13 17 18 17 17 20 24 28 24 23 23 21 21 21 23 24 24 25 25 27 28 29 28 31 33 35 37 39
42 40 37 37 25 26 21 19 22 20 20 16 15 14 16 14 13 14 16 21 27 23 18 19 21 23 25 25 24 22 21 22 22 22 23 25 27 28 31 32 34 36 38 40
42 41 37 32 31 24 19 16 15 16 16 17 16 18 21 19 17 16 15 14 16 18 20 20 21 21 21 22 21 19 17 17 18 20 22 25 27 30 32 33 34 35 38 41
38 39 34 33 30 22 21 20 20 18 14 18 16 21 18 20 22 26 24 21 21 21 22 22 22 22 21 19 15 15 17 19 21 23 25 28 29 30 30 32 33 35 40 46
33 37 29 21 20 20 18 21 18 14 12 13 16 16 17 18 19 21 15 13 16 18 18 18 19 19 21 19 18 18 19 22 24 26 27 27 28 29 31 33 36 40 46 52
36 32 34 26 20 17 15 16 14 13 12 10 8 14 17 20 18 21 19 13 13 17 21 19 19 21 22 21 21 22 24 26 27 28 28 28 30 33 34 37 41 45 51 54
34 28 26 24 24 20 16 15 14 14 13 15 13 15 16 20 22 23 23 22 17 18 19 19 19 21 22 23 25 26 27 27 27 28 30 32 34 36 38 42 45 50 50 49
27 24 21 19 18 17 15 15 15 14 13 15 16 16 17 15 16 17 18 19 18 18 20 21 23 23 24 26 26 26 27 28 29 31 34 36 38 41 44 46 47 48 44 35
18 17 16 15 15 16 14 13 12 12 12 12 13 14 15 15 15 16 17 18 19 20 21 22 24 25 26 27 28 29 30 32 34 36 38 41 43 44 46 45 44 37 28 23
18 17 16 17 17 16 15 15 13 12 12 12 12 13 14 14 14 15 17 19 20 21 23 26 27 29 30 32 33 34 36 38 41 44 46 47 47 46 44 40 29 21 18 15
16 16 16 16 15 14 13 12 13 13 13 12 11 13 14 15 17 19 21 23 25 27 29 31 34 36 37 39 41 43 46 48 51 53 53 50 45 39 28 20 17 14 11 11
13 12 10 9 9 8 8 8 8 9 11 13 15 17 19 21 23 25 28 30 32 34 36 39 42 44 46 49 51 54 55 55 53 49 44 37 27 18 15 14 13 10 9 9
Wind_Direction
204 183 194 201 216 221 216 212 219 207 191 195 214 218 225 234 228 232 219 212 222 224 224 223 222 220 221 206 205 208 213 222 228 232 237 229 231 236 238 238 243 252 250 239
215 203 199 195 201 219 220 221 221 211 200 185 181 199 214 218 230 231 226 215 222 222 226 223 221 221 225 206 208 210 211 217 226 230 234 230 228 233 235 237 251 249 243 246
203 215 224 226 229 221 223 224 225 220 209 224 229 225 211 225 230 229 224 219 216 219 222 222 221 224 228 204 200 207 211 214 225 230 234 237 234 232 240 244 237 244 249 255
205 187 185 188 187 214 222 220 224 234 220 218 219 228 222 221 226 237 236 228 222 218 218 219 228 220 223 211 204 206 209 221 222 231 235 239 238 237 234 234 237 245 253 255
214 186 179 173 186 197 206 220 217 227 216 214 215 224 229 237 240 241 239 228 230 213 209 214 223 223 241 217 205 210 216 221 227 231 239 234 235 235 232 239 242 249 253 257
211 192 199 187 151 195 211 226 222 222 209 207 216 210 219 230 234 241 242 247 234 213 204 211 215 220 237 223 203 208 212 223 224 224 231 228 230 234 239 239 241 248 252 258
211 205 208 183 155 173 177 188 211 222 207 204 199 188 207 220 198 205 232 232 225 223 212 209 218 218 232 214 204 208 210 219 219 227 231 231 234 235 235 240 241 246 254 259
208 213 212 181 168 174 172 180 190 199 205 202 193 193 201 211 190 180 200 212 224 242 216 216 208 209 225 235 209 213 218 221 221 230 230 231 232 237 241 243 247 255 261 262
201 205 201 171 168 159 160 170 196 189 199 195 201 198 203 205 194 186 198 222 227 241 212 210 211 208 214 227 226 218 213 216 220 217 219 229 239 244 250 251 255 256 257 262
198 201 194 179 186 159 166 176 172 175 198 201 201 202 210 198 202 183 180 207 226 222 192 193 200 206 198 202 204 194 194 197 205 221 230 234 235 240 240 239 245 251 260 269
191 198 190 197 196 180 173 179 192 174 189 210 198 189 198 204 193 177 185 201 213 221 190 171 172 173 174 189 197 202 208 209 215 222 231 235 233 233 237 243 251 260 267 274
187 196 193 194 187 180 176 183 192 190 172 202 204 199 192 188 188 185 203 194 206 213 212 177 162 167 159 175 188 199 212 222 229 230 229 229 227 233 241 248 257 265 272 278
175 192 190 193 196 196 191 189 195 196 182 180 194 192 188 177 177 193 202 186 182 193 197 164 165 176 182 196 207 213 214 216 220 221 221 225 232 240 247 257 264 273 279 285
167 185 189 197 193 156 160 183 187 192 199 176 171 166 180 185 169 188 179 174 176 182 182 166 168 185 195 225 227 221 220 220 222 226 229 235 242 248 257 265 272 279 286 291
156 174 187 197 187 156 142 179 185 176 176 166 165 162 177 191 182 191 186 174 185 171 175 177 185 200 208 221 228 227 228 231 233 236 239 243 249 257 264 273 282 286 291 294
148 158 175 193 168 148 170 159 165 169 166 159 162 157 162 180 180 197 188 178 172 180 191 196 206 211 216 222 226 229 233 237 240 240 243 249 255 264 276 283 288 291 293 295
140 149 168 186 178 148 163 155 145 149 157 153 153 158 158 163 170 186 197 197 192 210 211 208 210 210 216 221 224 228 232 236 236 239 249 261 270 276 282 287 291 292 293 299
139 138 146 149 141 145 150 148 152 148 142 148 165 169 170 176 179 171 165 181 194 199 207 213 219 222 223 222 224 221 224 239 252 260 267 274 279 284 286 287 288 293 299 302
136 135 135 141 136 142 146 148 150 153 157 159 164 164 172 194 201 195 193 200 208 217 219 219 221 220 219 209 223 243 252 258 263 270 275 278 280 282 285 290 295 298 302 307
149 147 162 149 148 144 142 145 145 152 144 163 178 175 182 191 194 183 176 185 200 201 203 208 212 216 213 227 251 256 256 262 268 274 277 280 283 286 291 297 300 304 308 312
141 154 150 152 158 156 166 169 163 173 192 207 196 199 193 187 190 195 206 216 220 214 212 215 222 229 238 246 252 259 264 269 272 275 280 283 288 292 297 300 302 304 308 315
156 153 145 153 178 185 183 194 197 197 206 216 221 225 221 218 216 216 217 220 226 229 226 229 238 243 247 253 259 264 268 272 276 281 285 288 291 294 297 299 302 307 312 316
153 155 161 167 177 188 194 194 199 207 222 222 228 235 234 231 229 224 223 225 224 225 231 238 243 251 258 263 268 272 274 277 280 283 286 289 292 294 299 303 305 309 310 308
157 160 171 181 193 190 194 200 198 197 196 194 191 197 200 206 212 220 228 234 238 243 249 255 260 264 268 270 273 276 280 283 285 286 289 292 295 297 300 301 304 304 300 297
148 152 155 160 165 165 171 179 181 186 197 206 211 219 226 232 238 244 251 256 260 263 265 268 271 274 276 279 280 282 284 286 288 289 289 291 292 294 294 295 291 285 285 293
155 160 164 168 170 174 176 184 198 207 216 223 235 245 252 256 261 265 269 271 274 275 278 279 280 281 282 283 284 285 285 285 286 286 287 286 285 283 280 271 267 269 275 286
156 156 156 164 177 188 202 221 242 256 267 274 279 282 281 281 283 284 286 286 285 285 285 285 285 285 285 284 284 284 285 284 281 277 273 271 267 255 243 247 253 253 263 274
Height
5437 5441 5448 5457 5464 5471 5478 5482 5485 5498 5503 5509 5513 5517 5521 5525 5528 5533 5538 5541 5545 5551 5558 5566 5571 5578 5584 5594 5604 5616 5626 5636 5643 5648 5653 5658 5663 5670 5673 5677 5681 5685 5687 5689
5432 5438 5445 5454 5461 5469 5473 5478 5485 5491 5498 5503 5506 5511 5516 5518 5522 5527 5533 5537 5540 5545 5551 5557 5565 5571 5577 5583 5597 5606 5616 5628 5635 5641 5644 5648 5655 5659 5666 5671 5674 5675 5678 5681
5429 5434 5443 5455 5459 5465 5469 5476 5481 5484 5495 5496 5498 5504 5508 5514 5518 5522 5526 5530 5534 5539 5545 5551 5557 5564 5571 5579 5589 5599 5607 5619 5626 5630 5635 5640 5645 5652 5659 5661 5663 5665 5668 5671
5427 5435 5444 5451 5455 5458 5465 5470 5474 5478 5482 5486 5492 5496 5503 5509 5512 5517 5520 5524 5527 5532 5538 5544 5551 5557 5566 5572 5579 5589 5600 5609 5614 5622 5629 5634 5640 5645 5649 5650 5653 5656 5658 5660
5422 5432 5441 5447 5451 5457 5463 5467 5470 5473 5479 5484 5488 5492 5500 5504 5508 5512 5515 5519 5522 5526 5531 5537 5544 5551 5556 5563 5573 5581 5591 5598 5607 5616 5622 5627 5631 5636 5639 5641 5643 5646 5649 5651
5418 5429 5436 5443 5448 5455 5461 5465 5467 5470 5476 5480 5485 5492 5496 5499 5504 5508 5512 5514 5516 5520 5525 5532 5538 5546 5550 5558 5567 5576 5584 5594 5602 5608 5613 5617 5622 5625 5628 5631 5631 5634 5637 5640
5416 5424 5433 5439 5444 5451 5458 5465 5465 5469 5473 5477 5483 5487 5490 5494 5500 5504 5509 5511 5514 5516 5521 5527 5534 5540 5547 5552 5563 5570 5579 5588 5595 5602 5606 5609 5612 5615 5618 5618 5620 5624 5627 5629
5411 5419 5431 5436 5444 5449 5453 5458 5463 5467 5470 5474 5479 5484 5489 5492 5495 5501 5506 5508 5511 5512 5514 5520 5527 5535 5542 5546 5557 5566 5572 5580 5587 5592 5596 5601 5604 5607 5608 5610 5612 5615 5617 5619
5405 5417 5426 5436 5441 5446 5451 5457 5462 5466 5469 5473 5478 5483 5487 5491 5495 5499 5504 5506 5509 5510 5512 5516 5524 5532 5540 5545 5551 5557 5564 5571 5577 5582 5587 5591 5596 5598 5601 5603 5605 5608 5610 5612
5403 5415 5426 5437 5439 5444 5449 5455 5461 5466 5468 5471 5475 5481 5485 5489 5493 5497 5501 5505 5507 5509 5509 5514 5521 5528 5535 5541 5546 5552 5559 5565 5572 5576 5580 5584 5588 5591 5594 5596 5599 5601 5603 5604
5402 5414 5427 5431 5439 5445 5449 5454 5459 5464 5468 5471 5475 5480 5483 5487 5491 5496 5499 5504 5507 5509 5512 5516 5521 5526 5531 5538 5546 5551 5557 5562 5566 5571 5575 5579 5583 5585 5587 5590 5593 5594 5595 5595
5401 5414 5426 5433 5439 5444 5448 5454 5459 5464 5468 5472 5475 5480 5483 5486 5490 5494 5498 5503 5506 5510 5513 5517 5523 5528 5530 5538 5544 5549 5554 5559 5562 5566 5570 5573 5577 5579 5582 5583 5585 5586 5586 5584
5401 5412 5426 5433 5439 5445 5450 5453 5457 5463 5467 5472 5475 5479 5482 5486 5490 5494 5499 5503 5506 5511 5516 5519 5524 5530 5535 5540 5545 5549 5552 5555 5558 5562 5565 5568 5572 5574 5576 5577 5578 5577 5575 5573
5400 5411 5427 5433 5440 5445 5450 5453 5457 5461 5466 5471 5475 5478 5481 5485 5489 5494 5498 5503 5507 5511 5516 5520 5525 5530 5534 5538 5542 5546 5549 5551 5554 5558 5561 5564 5567 5569 5570 5570 5568 5567 5566 5564
5400 5413 5425 5433 5440 5446 5450 5454 5458 5462 5466 5470 5475 5478 5481 5485 5489 5494 5499 5503 5507 5512 5516 5521 5526 5531 5535 5538 5541 5542 5545 5549 5552 5555 5558 5560 5561 5562 5562 5561 5560 5558 5556 5553
5403 5416 5427 5434 5440 5446 5452 5456 5459 5463 5467 5471 5475 5478 5481 5485 5489 5493 5497 5503 5507 5512 5517 5522 5526 5529 5532 5535 5537 5540 5543 5546 5549 5551 5553 5554 5554 5554 5554 5553 5551 5549 5546 5542
5411 5421 5429 5436 5443 5449 5453 5457 5460 5464 5468 5471 5475 5478 5482 5486 5490 5495 5499 5504 5509 5512 5516 5519 5522 5525 5528 5531 5534 5536 5539 5541 5544 5545 5545 5547 5547 5546 5546 5544 5540 5538 5535 5530
5417 5426 5434 5441 5446 5450 5455 5458 5462 5465 5468 5472 5475 5479 5483 5487 5491 5495 5498 5503 5507 5510 5514 5517 5519 5521 5524 5526 5529 5531 5534 5537 5538 5539 5540 5540 5538 5537 5536 5534 5532 5529 5525 5521
5423 5431 5436 5442 5446 5451 5457 5460 5463 5466 5470 5473 5475 5479 5483 5486 5490 5494 5498 5502 5505 5508 5510 5513 5515 5518 5521 5524 5526 5528 5530 5530 5531 5532 5531 5531 5529 5529 5526 5524 5522 5519 5515 5509
5425 5431 5439 5444 5449 5454 5458 5461 5464 5467 5471 5474 5477 5480 5483 5487 5490 5493 5497 5500 5503 5505 5508 5510 5513 5516 5518 5520 5521 5523 5524 5525 5525 5523 5522 5521 5520 5519 5517 5514 5511 5506 5501 5495
5431 5437 5441 5445 5450 5455 5459 5464 5466 5469 5472 5474 5477 5480 5483 5486 5489 5492 5495 5497 5500 5502 5505 5507 5510 5512 5514 5515 5516 5516 5516 5516 5516 5515 5513 5512 5511 5509 5506 5504 5500 5497 5492 5486
5436 5441 5443 5447 5452 5457 5460 5463 5466 5469 5472 5474 5477 5479 5481 5484 5486 5489 5491 5494 5496 5498 5500 5502 5504 5505 5506 5507 5508 5508 5508 5507 5506 5506 5505 5504 5503 5501 5498 5495 5491 5486 5480 5474
5441 5444 5448 5451 5454 5458 5460 5462 5465 5468 5470 5472 5474 5476 5479 5481 5483 5485 5487 5489 5491 5493 5495 5496 5498 5499 5499 5499 5500 5500 5500 5499 5498 5498 5497 5495 5493 5490 5486 5482 5479 5474 5469 5464
5443 5446 5448 5451 5454 5457 5459 5461 5464 5467 5469 5470 5472 5475 5477 5479 5480 5482 5483 5485 5486 5488 5489 5490 5490 5491 5491 5491 5491 5491 5491 5490 5489 5487 5485 5483 5480 5477 5474 5470 5467 5463 5461 5459
5446 5449 5451 5453 5456 5458 5461 5464 5465 5467 5468 5470 5471 5473 5475 5476 5477 5478 5480 5480 5481 5482 5482 5483 5483 5483 5483 5482 5482 5481 5479 5478 5476 5474 5472 5469 5467 5464 5461 5458 5456 5456 5455 5454
5450 5452 5454 5456 5458 5460 5461 5462 5463 5465 5467 5468 5469 5471 5471 5472 5473 5473 5474 5473 5473 5473 5473 5473 5472 5472 5471 5470 5469 5467 5465 5463 5461 5458 5456 5455 5453 5451 5450 5449 5450 5449 5449 5449
5452 5454 5455 5457 5458 5459 5460 5461 5462 5463 5464 5465 5465 5465 5465 5466 5466 5466 5465 5465 5463 5462 5461 5460 5459 5457 5456 5455 5452 5450 5447 5445 5442 5441 5440 5440 5440 5441 5442 5444 5445 5445 5445 5444